Satellite-Ground Cal/Val Region Overpasses Predictions

Prediction of Satellite NPP Overpassing Cal/Val Region: PacNW

Region Location: (Latitude: 10.00, Longitude: 139.50) to (Latitude: 22.70, Longitude: 165.60).

Table of predicted overpasses for the next 14.0 days since TLE Epoch: 9/8/2013
Interval Starting Time Starting Location Ending Time Ending Location
1 09/08/2013 14:59:09 ( 22.66, 160.23) 09/08/2013 15:02:44 ( 10.04, 157.22)
2 09/09/2013 02:10:50 ( 19.15, 165.60) 09/09/2013 02:11:50 ( 22.67, 164.73)
3 09/09/2013 03:49:45 ( 10.05, 142.36) 09/09/2013 03:53:09 ( 22.02, 139.51)
4 09/09/2013 14:40:08 ( 22.70, 165.00) 09/09/2013 14:43:44 ( 10.01, 161.97)
5 09/09/2013 16:21:38 ( 22.69, 139.62) 09/09/2013 16:21:46 ( 22.22, 139.51)
6 09/10/2013 03:30:44 ( 10.01, 147.13) 09/10/2013 03:34:20 ( 22.69, 144.10)
7 09/10/2013 16:02:37 ( 22.67, 144.37) 09/10/2013 16:06:12 ( 10.05, 141.36)
8 09/11/2013 03:11:43 ( 10.03, 151.88) 09/11/2013 03:15:18 ( 22.65, 148.87)
9 09/11/2013 15:43:37 ( 22.65, 149.12) 09/11/2013 15:47:12 ( 10.03, 146.12)
10 09/12/2013 02:52:43 ( 10.06, 156.63) 09/12/2013 02:56:18 ( 22.68, 153.62)
11 09/12/2013 15:24:36 ( 22.68, 153.89) 09/12/2013 15:28:12 ( 10.00, 150.87)
12 09/13/2013 02:33:41 ( 10.02, 161.39) 09/13/2013 02:37:17 ( 22.70, 158.37)
13 09/13/2013 15:05:35 ( 22.66, 158.64) 09/13/2013 15:09:10 ( 10.04, 155.63)
14 09/14/2013 02:15:22 ( 12.45, 165.59) 09/14/2013 02:18:16 ( 22.66, 163.14)
15 09/14/2013 03:56:11 ( 10.05, 140.77) 09/14/2013 03:57:44 ( 15.51, 139.50)
16 09/14/2013 14:46:34 ( 22.69, 163.41) 09/14/2013 14:50:10 ( 10.01, 160.38)
17 09/15/2013 03:37:09 ( 10.01, 145.53) 09/15/2013 03:40:45 ( 22.69, 142.51)
18 09/15/2013 14:30:35 ( 11.99, 165.59) 09/15/2013 14:31:08 ( 10.05, 165.15)
19 09/15/2013 16:09:03 ( 22.67, 142.78) 09/15/2013 16:12:38 ( 10.04, 139.77)
20 09/16/2013 03:18:09 ( 10.04, 150.29) 09/16/2013 03:21:44 ( 22.66, 147.28)
21 09/16/2013 15:50:02 ( 22.70, 147.55) 09/16/2013 15:53:38 ( 10.02, 144.52)
22 09/17/2013 02:59:07 ( 10.00, 155.05) 09/17/2013 03:02:43 ( 22.68, 152.03)
23 09/17/2013 15:31:01 ( 22.67, 152.30) 09/17/2013 15:34:36 ( 10.05, 149.29)
24 09/18/2013 02:40:07 ( 10.03, 159.80) 09/18/2013 02:43:42 ( 22.65, 156.79)
25 09/18/2013 15:12:01 ( 22.65, 157.05) 09/18/2013 15:15:36 ( 10.03, 154.04)
26 09/19/2013 02:21:07 ( 10.06, 164.55) 09/19/2013 02:24:42 ( 22.68, 161.54)
27 09/19/2013 14:52:59 ( 22.68, 161.81) 09/19/2013 14:56:34 ( 10.06, 158.80)
28 09/20/2013 03:43:35 ( 10.03, 143.94) 09/20/2013 03:47:10 ( 22.65, 140.93)
29 09/20/2013 14:35:06 ( 18.72, 165.59) 09/20/2013 14:37:34 ( 10.03, 163.55)
30 09/20/2013 16:15:29 ( 22.65, 141.19) 09/20/2013 16:17:27 ( 15.73, 139.50)
31 09/21/2013 03:24:35 ( 10.05, 148.69) 09/21/2013 03:28:10 ( 22.67, 145.68)


NCC Satellite Cal/Val Overpasses Prediction Service
